Retour au catalogue

NUSAT-35

WILLIAMINA

ActifScienceSSO
NORAD 55048·PAYLOAD·🇦🇷 Argentina

Lancé Jan 3, 2023 depuis Cape Canaveral Space Force Station

Loading…

Prochains Passages (prochaines 24 heures)

TLE

FraisSource: Space-Track

Époque: Sep 14, 2026, 14:24 UTC

1 55048U 23001AR  26257.60027014  .00010229  00000-0  28259-3 0  9993
2 55048  97.1754 308.1884 0011969 133.5450 226.6791 15.37163637206133

Suivez NUSAT-35 en temps réel avec AllMySat

Download on the App Store